Regional Weather Roundup
Issued by NWS Green Bay, WI

Home | Current Version | Previous Version | Graphics & Text | Print | Product List | Glossary Off
Versions: 1 2 3 4 5 6 7 8 9 10 11 12 13 14 15 16 17 18 19 20 21 22 23 24 25 26 27 28 29 30 31 32 33 34 35 36 37 38 39 40 41 42 43 44 45 46 47 48 49 50

092
ASUS43 KGRB 011211
RWRGRB

NORTH-CENTRAL AND NORTHEAST WISCONSIN REGIONAL WEATHER ROUNDUP
NATIONAL WEATHER SERVICE GREEN BAY WI
700 AM CDT SUN MAY 01 2016

WIZ005-009-010>012-018-019-011300-
NORTH CENTRAL WISCONSIN

CITY           SKY/WX    TMP DP  RH WIND       PRES   REMARKS
IRONWOOD         N/A     36  36 100 N3        30.18R VSB<1/4
MANITOWISH WTR CLOUDY    37  36  99 N7        30.15S
ARBOR VITAE    CLOUDY    38  36  91 N7        30.14R
EAGLE RIVER    CLOUDY    36  34  95 N6        30.13S
LAND O LAKES   CLOUDY    37  35  94 N8        30.15S
RHINELANDER    MOSUNNY   37  33  85 VRB5      30.13R
PHILLIPS       PTSUNNY   36  34  92 N5        30.14R
ANTIGO         CLOUDY    38  34  83 N5        30.10R
TOMAHAWK       CLOUDY    36  33  88 N3        30.13S
MERRILL        CLOUDY    39  36  87 N6        30.11S
$$

WIZ013-073-011300-
NORTHEAST WISCONSIN

CITY           SKY/WX    TMP DP  RH WIND       PRES   REMARKS
IRON MOUNTAIN  CLOUDY    39  33  79 NW7       30.12R
MARINETTE      CLOUDY    43  32  65 CALM      30.10S
OCONTO         CLOUDY    42  37  82 N6        30.10R
$$

WIZ017-030-035>037-045-011300-
CENTRAL WISCONSIN

CITY           SKY/WX    TMP DP  RH WIND       PRES   REMARKS
MEDFORD        CLOUDY    38  34  84 NE8       30.10S
WAUSAU         MOSUNNY   44  33  65 N5        30.08S
MOSINEE        PTSUNNY   41  34  75 N8        30.09S
MARSHFIELD     CLOUDY    43  33  68 NE12      30.08R
WISC RAPIDS    CLOUDY    44  33  65 NE7       30.08S
STEVENS POINT  LGT RAIN  41  32  71 N7        30.09R
WAUPACA        DRIZZLE   45  36  70 N7        30.08R
SHAWANO        CLOUDY    45  36  69 NE8       30.10R
CLINTONVILLE   CLOUDY    43  32  65 N6        30.09R
WAUTOMA        CLOUDY    43  35  73 NE7       30.07R
$$

WIZ038-039-048-051-011300-
FOX VALLEY

CITY           SKY/WX    TMP DP  RH WIND       PRES   REMARKS
NWS GREEN BAY  LGT RAIN  43  38  82 NE13      30.08R
APPLETON       DRIZZLE   43  34  70 NE14      30.05R
OSHKOSH        CLOUDY    44  37  76 NE15G23   30.05R
FOND DU LAC    CLOUDY    44  37  76 NE13      30.06R
$$

WIZ022-050-052-011300-
EAST CENTRAL WISCONSIN

CITY           SKY/WX    TMP DP  RH WIND       PRES   REMARKS
EPHRAIM        CLOUDY    39  36  90 N8        30.08S
STURGEON BAY   CLOUDY    43  36  75 N6        30.11S
MANITOWOC      LGT RAIN  42  38  85 N9G22     30.07R
SHEBOYGAN      CLOUDY    42  37  82 N10       30.05R
$$

LMZ563-521-522-541>543-011300-
LAKESHORE

STATION/POSITION TIME  TEMP    WIND        PRES    VSBY  WAVE
                       AIR SEA DIR/SP/G                  HT/PER
                 (UTC) (F)     (DEG/KT/KT) (MB)    (MI)  (FT/S)
SHEBOYGAN LKSHOR 1200   41      10/ 18/ 20 1018.4R
KEWAUNEE LKSHORE 1100   42      20/ 12/ 18 1017.4R
ALGOMA MARINA    1145           10/  7/  9   N/A
NORTHPORT PIER   1100   40     310/  7/  8 1019.0S
N MID LAKE BUOY  1150   41 38   50/ 14/ 16 1018.8R         1/ 3
CHAMBERS ISLAND  1100   42     350/  8/  9 1019.3S
MENOMINEE LKSHOR 1100   43     350/  8/  9 1017.9S
$$




USA.gov is the U.S. government's official web portal to all federal, state and local government web resources and services.